Regional Weather Roundup
Issued by NWS

Home | Current Version | Previous Version | Text Only | Print | Product List | Glossary On
Versions: 1 2 3 4 5 6 7 8 9 10 11 12 13 14 15 16 17 18 19 20 21 22 23 24 25 26 27 28 29 30 31 32 33 34 35 36 37 38 39 40 41 42 43 44 45 46 47 48 49 50
000
ASUS44 KFWD 210501
RWRTX
NORTH TEXAS HOURLY WEATHER ROUNDUP
NATIONAL WEATHER SERVICE FORT WORTH TX
1200 AM CDT SUN SEP 21 2014

NOTE: "FAIR" INDICATES FEW OR NO CLOUDS BELOW 12,000 FEET WITH NO
SIGNIFICANT WEATHER AND/OR OBSTRUCTIONS TO VISIBILITY.

TXZ118-119-210600-
DALLAS/FORT WORTH METROPLEX

CITY           SKY/WX    TMP DP  RH WIND       PRES   REMARKS
DFW AIRPORT    CLEAR     79  62  56 S8        30.01S
DALLAS LOVE    CLEAR     80  63  55 S7        30.01S
FTW MEACHAM    CLEAR     78  63  59 S6        30.02R
DAL-EXECUTIVE  CLEAR     76  63  64 CALM      30.02S
FTW-ALLIANCE   CLEAR    N/A N/A N/A MISG      30.01S
FTW-NAS-JRB    CLEAR     80  61  52 CALM      30.06S
FTW-SPINKS     CLEAR     72  62  71 CALM      30.04S
ARLINGTON      CLEAR     71  63  75 CALM      30.02S
GRAND PRAIRIE  CLEAR     79  62  56 CALM      30.03S
ADDISON        CLEAR     80  61  52 S5        30.04S
MESQUITE       CLEAR     75  62  65 CALM      30.02S
LANCASTER      CLEAR     71  62  73 CALM      30.02S
$$

TXZ091>094-102>105-117-120-121-131>134-210600-
NORTH CENTRAL TEXAS

CITY           SKY/WX    TMP DP  RH WIND       PRES   REMARKS
SHRMAN/DENISON CLEAR     72  64  76 E6        30.04R
GAINESVILLE    CLEAR     74  63  67 CALM      30.05S
BRIDGEPORT     CLEAR     75  60  58 S5        30.05S
DECATUR        CLEAR     77  60  55 S6        30.04S
DENTON         CLEAR     75  61  61 SE3       30.02R
MCKINNEY       CLEAR     73  61  65 CALM      30.02R
GREENVILLE     CLEAR     70  64  83 CALM      30.03R
ROCKWALL       CLEAR     76  64  67 S3        30.02R
TERRELL        CLEAR     74  66  76 CALM      30.02S
WAXAHACHIE     PTCLDY    72  61  68 CALM      30.04S
CLEBURNE       CLEAR     75  66  73 CALM      30.05S
$$

TXZ083>090-098>101-113>116-127>130-139>142-154-155-210600-
WESTERN NORTH TEXAS

CITY           SKY/WX    TMP DP  RH WIND       PRES   REMARKS
WICHITA FALLS  CLOUDY    76  70  82 S5        30.03S
WF-KICKAPOO    CLOUDY    77  67  71 CALM      30.05S
VERNON         CLOUDY    79  69  69 CALM      30.06S
ABILENE        PTCLDY    74  72  93 CALM      30.07R
ABILENE-DYESS  CLOUDY    75  66  73 E2        30.06S
MINERAL WELLS  PTCLDY    75  62  64 SE5       30.03R
STEPHENVILLE   CLOUDY    75  66  73 CALM      30.08R
COMANCHE       CLOUDY    74  69  85 S3        30.05S
BROWNWOOD      CLOUDY    73  72  94 CALM      30.05S
COLEMAN        MOCLDY    73  69  87 CALM      30.06S
BRADY          CLEAR     73  70  88 E3        30.05S
$$

TXZ143>147-156>162-174-175-210600-
CENTRAL TEXAS

CITY           SKY/WX    TMP DP  RH WIND       PRES   REMARKS
WACO           CLEAR     72  66  81 CALM      30.01S
WACO-MCGREGOR  CLEAR     73  63  68 CALM      30.02S
CORSICANA      CLEAR     76  65  68 SE3       30.02S
MEXIA          CLEAR     73  67  81 CALM      30.01R
HEARNE         CLEAR     74  69  82 CALM      30.00S
CAMERON        CLEAR     75  70  85 CALM      29.99S
TEMPLE         CLEAR     75  64  69 E7        30.01R
KILLEEN        NOT AVBL
KILLEEN-SKYLRK CLEAR     73  64  73 CALM      30.02R
FORT HOOD      CLEAR     77  68  73 CALM      30.02R
HAMILTON       CLEAR     74  66  77 SE5       30.05S
LAMPASAS       CLEAR     76  72  89 CALM      30.03R
$$

TXZ095>097-106>112-122>126-135>138-148>153-164>167-210600-
EAST TEXAS

CITY           SKY/WX    TMP DP  RH WIND       PRES   REMARKS
PARIS          CLEAR     73  64  73 SE6       30.03F
SULPHUR SPRNGS CLEAR     74  67  79 E5        30.05R
MOUNT PLEASANT CLEAR     74  69  82 CALM      30.04S
MINEOLA        CLEAR     72  70  94 CALM      30.02S
TYLER          CLEAR     76  66  71 CALM      30.02R
LONGVIEW       CLEAR     73  67  81 CALM      30.01R
MARSHALL       CLEAR     73  68  83 CALM      30.03S
ATHENS         CLEAR     68  64  88 CALM      30.01S
PALESTINE      CLEAR     71  69  92 CALM      30.02S
JACKSONVILLE   CLEAR     76  66  71 CALM      30.04S
HENDERSON      CLEAR     69  69  97 CALM      30.03R
NACOGDOCHES    CLEAR     68  64  88 CALM      30.01S
LUFKIN         CLEAR     73  69  87 CALM      30.00S
$$

SUPPLEMENTAL OBSERVATIONS (CENTRAL)

CITY           SKY/WX    TMP DP  RH WIND       PRES   REMARKS
$$

SUPPLEMENTAL OBSERVATIONS (WEST)

CITY           SKY/WX    TMP DP  RH WIND       PRES   REMARKS
$$

SUPPLEMENTAL OBSERVATIONS (EAST)

CITY           SKY/WX    TMP DP  RH WIND       PRES   REMARKS
$$

SUPPLEMENTAL OBSERVATIONS ARE A COLLECTION OF AUTOMATED INSTRUMENTS
THAT ARE MAINTAINED BY A VARIETY OF FEDERAL AND STATE AGENCIES.
CERTAIN ELEMENTS...SUCH AS HUMIDITY VALUES AND SUSTAINED WIND
SPEEDS...MAY BE APPROXIMATED.




USA.gov is the U.S. government's official web portal to all federal, state and local government web resources and services.